Location: Bermeries
(50.2863°N, 3.7551°E)
Time: 20:36:52
(UTC+00:00)

ADEOS II - Pass Details

Date: 23 May 2024
Orbit: 795 x 798 km, 98.7° (Epoch: 16 June)

Event Time Altitude Azimuth Distance (km) Brightness Sun altitude
Rises 02:51:58 0° 11° (N) 3,314 6.4 -7.6°
Reaches altitude 10° 02:54:21 10° 6° (N) 2,379 5.4 -7.3°
Maximum altitude 02:59:24 50° 293° (WNW) 1,006 2.5 -6.8°
Drops below altitude 10° 03:04:26 10° 219° (SW) 2,363 3.9 -6.2°
Enters shadow 03:05:07 - 217° (SW) 2,630 4.1 -6.1°
